Temp
89 89 83 83 83 83 84 83 83 83 83 83 83 83 83 83 83 83 83 83 83 83 83 84 84 83 83 83 83 83 83 83 84 84 84 84 83 82 82 83 86 89 82
95 91 83 83 83 83 83 83 83 83 83 83 83 83 83 84 83 83 83 84 83 83 83 84 83 83 83 83 83 83 83 83 84 84 84 84 83 83 82 83 84 85 83
96 92 90 83 83 83 83 83 84 84 83 83 83 84 84 84 84 84 84 84 83 84 84 84 84 84 83 83 83 83 83 83 83 82 85 90 87 82 84 83 83 83 83
98 97 93 82 83 83 83 84 83 84 84 83 84 83 84 84 84 84 84 84 84 84 84 84 84 84 83 83 83 83 84 84 85 85 88 90 90 83 82 83 83 82 82
89 94 88 83 83 83 83 83 83 83 84 84 84 83 84 84 84 85 85 84 84 84 84 84 84 84 83 83 83 83 83 85 87 91 87 88 88 84 83 84 83 83 83
93 95 85 83 83 83 83 83 83 83 84 84 84 83 84 85 84 84 84 84 84 84 84 84 84 84 83 83 83 83 83 85 90 94 92 88 87 84 83 83 83 82 82
88 95 91 83 83 83 83 84 84 84 84 84 85 85 84 84 84 85 84 85 85 84 84 84 84 84 83 83 83 83 83 87 94 92 90 89 86 82 83 83 82 82 82
94 93 92 83 83 83 83 83 84 84 83 84 84 84 84 84 84 84 85 85 85 85 85 84 84 83 83 83 82 82 83 84 95 92 89 87 82 82 83 82 82 82 82
83 91 92 92 86 84 84 84 84 83 84 84 84 84 84 85 85 85 85 85 85 85 85 85 84 83 83 83 83 82 83 85 95 94 93 89 81 83 83 82 82 82 82
96 92 92 89 93 90 90 84 84 84 84 84 84 84 84 85 85 85 83 85 85 85 85 85 84 84 83 83 83 83 83 85 96 93 90 86 82 82 82 82 82 81 81
97 95 94 93 90 89 90 88 84 84 84 83 85 85 84 94 92 88 85 85 85 85 85 85 84 84 83 83 83 84 83 98 98 95 91 80 82 83 82 82 81 81 81
94 89 92 94 92 87 92 89 90 89 93 90 89 90 91 85 86 93 88 85 85 85 85 85 85 85 85 96 95 86 98 98 97 94 89 81 82 82 82 82 81 81 81
94 90 92 89 87 91 90 92 92 93 92 92 90 84 89 91 92 94 92 92 92 88 89 91 92 96 97 98 98 99 99 100 99 96 85 81 82 83 82 82 82 82 82
91 89 91 89 83 91 92 84 97 96 95 94 94 86 90 91 94 94 94 94 94 95 94 96 95 95 97 97 98 99 100 99 100 96 86 82 81 82 82 82 82 83 83
92 93 93 90 85 90 80 95 95 94 97 95 94 90 88 94 92 94 91 88 96 95 96 96 95 96 96 97 97 97 97 97 99 99 93 83 82 81 82 82 83 83 83
92 92 93 92 90 89 90 91 93 92 94 95 95 94 94 95 93 93 92 94 88 84 93 96 93 96 96 97 96 96 96 97 95 97 97 89 83 83 82 82 82 83 83
90 93 93 92 93 86 87 91 94 94 97 96 93 92 93 93 91 91 90 87 92 94 93 94 94 96 98 98 95 97 97 97 96 95 99 97 89 82 83 83 83 83 83
89 91 93 97 93 86 87 93 95 97 97 96 95 94 92 91 91 90 86 90 96 95 97 98 97 97 98 97 96 98 97 99 97 97 99 100 100 98 84 84 84 83 83
88 87 87 93 91 89 90 92 93 92 95 96 95 94 91 91 92 88 90 93 91 96 98 98 97 97 95 97 98 98 98 99 101 102 98 100 99 102 99 83 83 83 84
93 85 85 89 90 89 89 89 86 92 89 97 96 88 92 93 92 90 93 93 90 96 94 95 91 96 97 96 100 98 99 101 102 101 100 104 101 103 102 98 95 93 83
94 85 89 86 88 86 88 86 86 81 83 84 95 92 91 92 92 91 88 92 85 91 91 93 93 92 96 97 95 97 98 99 100 102 104 105 101 103 101 100 102 101 94
93 91 83 86 87 86 90 79 85 82 85 83 84 92 93 92 91 92 87 91 85 93 92 91 90 94 96 96 93 95 90 95 100 102 102 103 102 104 102 100 100 98 99
90 91 90 86 86 87 87 90 90 86 86 88 85 91 89 92 93 93 91 88 92 91 92 92 93 91 93 94 94 91 85 83 94 99 98 100 99 102 104 101 101 100 99
94 94 92 89 86 86 87 86 84 87 87 81 86 83 87 90 91 93 91 91 90 83 91 92 95 92 90 93 96 97 94 92 89 87 98 98 99 101 99 103 103 100 101
96 95 93 90 87 85 84 85 88 86 90 92 82 87 86 89 90 93 92 90 90 93 92 91 91 90 94 92 94 96 93 97 95 90 85 94 100 102 103 104 103 104 103
98 97 94 89 87 87 86 87 86 88 85 86 87 89 91 90 91 91 92 90 90 90 91 92 91 90 89 91 94 93 95 81 94 94 90 91 94 97 102 103 102 103 103
MSLP
1013.80 1015.07 1015.79 1015.87 1015.96 1016.08 1016.11 1016.13 1016.33 1016.44 1016.41 1016.43 1016.49 1016.50 1016.54 1016.63 1016.70 1016.75 1016.81 1016.78 1016.86 1016.71 1016.80 1017.05 1017.07 1017.23 1017.36 1017.39 1017.35 1017.33 1017.27 1017.28 1017.09 1017.10 1017.21 1017.34 1017.45 1017.39 1017.30 1017.23 1016.82 1017.21 1017.72
1013.68 1014.95 1015.92 1016.10 1016.26 1016.33 1016.39 1016.41 1016.49 1016.59 1016.70 1016.77 1016.75 1016.84 1016.83 1016.85 1016.93 1017.00 1017.11 1017.17 1017.25 1017.32 1017.32 1017.43 1017.54 1017.60 1017.70 1017.75 1017.71 1017.71 1017.73 1017.42 1017.40 1017.48 1017.21 1017.48 1017.69 1017.49 1017.42 1017.51 1017.27 1017.82 1017.93
1013.51 1015.12 1015.66 1016.18 1016.36 1016.51 1016.55 1016.75 1016.76 1016.87 1017.07 1017.10 1017.07 1017.09 1017.10 1017.11 1017.27 1017.35 1017.47 1017.56 1017.65 1017.66 1017.64 1017.68 1017.77 1017.91 1018.04 1018.09 1018.12 1018.04 1017.81 1017.59 1017.86 1017.73 1017.32 1017.21 1017.90 1018.08 1017.85 1017.97 1018.06 1018.14 1018.20
1013.39 1014.22 1015.37 1016.51 1016.63 1016.78 1016.90 1016.97 1017.03 1017.11 1017.17 1017.23 1017.31 1017.32 1017.36 1017.36 1017.55 1017.66 1017.83 1017.87 1017.91 1017.93 1017.90 1018.07 1018.14 1018.33 1018.33 1018.31 1018.39 1018.18 1018.02 1017.81 1017.75 1017.49 1017.31 1017.47 1018.13 1018.54 1018.49 1018.37 1018.45 1018.53 1018.60
1013.80 1014.43 1016.15 1016.66 1016.85 1016.94 1017.04 1017.19 1017.32 1017.37 1017.44 1017.51 1017.49 1017.63 1017.64 1017.68 1017.86 1017.98 1018.15 1018.23 1018.27 1018.34 1018.41 1018.44 1018.49 1018.63 1018.63 1018.72 1018.74 1018.55 1018.34 1018.14 1017.59 1017.29 1018.04 1018.36 1018.60 1018.94 1018.87 1018.76 1018.73 1018.78 1018.79
1014.23 1014.91 1016.47 1016.79 1016.97 1017.15 1017.35 1017.53 1017.63 1017.75 1017.77 1017.79 1017.80 1017.92 1017.93 1017.99 1018.37 1018.50 1018.53 1018.56 1018.69 1018.83 1018.77 1018.80 1018.80 1018.98 1019.01 1019.07 1019.09 1018.97 1018.72 1018.38 1017.49 1017.37 1017.99 1018.91 1019.13 1019.31 1019.37 1019.28 1019.28 1019.26 1019.39
1014.59 1015.24 1016.24 1017.00 1017.23 1017.39 1017.56 1017.71 1017.85 1017.91 1018.04 1018.12 1018.12 1018.10 1018.22 1018.35 1018.59 1018.69 1018.87 1018.81 1018.83 1019.07 1019.11 1019.09 1019.16 1019.29 1019.37 1019.31 1019.41 1019.15 1018.73 1018.29 1017.72 1018.07 1018.57 1019.14 1019.70 1019.81 1019.70 1019.72 1019.73 1019.72 1019.81
1014.31 1015.05 1016.16 1017.30 1017.52 1017.65 1017.75 1017.96 1018.07 1018.16 1018.31 1018.37 1018.43 1018.53 1018.59 1018.63 1018.91 1018.87 1019.06 1019.17 1019.24 1019.36 1019.41 1019.36 1019.43 1019.51 1019.57 1019.75 1019.75 1019.27 1018.89 1018.65 1018.06 1018.60 1019.23 1019.73 1020.25 1020.20 1020.20 1020.20 1020.15 1020.16 1020.19
1015.76 1015.32 1015.80 1016.66 1017.53 1017.80 1017.99 1018.15 1018.34 1018.56 1018.55 1018.62 1018.71 1018.80 1018.90 1019.01 1019.09 1019.19 1019.36 1019.40 1019.52 1019.57 1019.56 1019.65 1019.76 1019.83 1019.90 1019.97 1019.83 1019.40 1018.94 1018.39 1018.11 1018.18 1018.62 1019.77 1020.47 1020.41 1020.49 1020.47 1020.39 1020.51 1020.48
1014.23 1015.41 1015.47 1016.34 1016.59 1016.99 1017.64 1018.33 1018.53 1018.65 1018.79 1018.85 1018.95 1019.08 1019.15 1019.19 1019.34 1019.39 1019.41 1019.70 1019.76 1019.80 1019.81 1019.92 1019.96 1019.91 1019.97 1020.02 1019.89 1019.64 1019.17 1018.68 1018.16 1018.77 1019.60 1020.49 1020.55 1020.65 1020.73 1020.78 1020.83 1020.76 1020.69
1013.75 1014.53 1015.27 1016.04 1016.52 1016.88 1017.31 1018.39 1018.70 1018.90 1018.98 1019.03 1019.14 1019.24 1019.06 1018.49 1018.86 1019.01 1019.69 1019.85 1019.92 1019.97 1019.97 1019.93 1019.85 1019.87 1019.84 1019.55 1019.54 1019.49 1019.29 1018.10 1018.10 1018.95 1019.93 1020.81 1020.79 1020.80 1020.83 1020.90 1020.87 1020.78 1020.76
1014.06 1015.19 1015.19 1015.09 1016.39 1017.26 1017.14 1018.17 1017.88 1018.42 1018.07 1018.33 1018.61 1018.89 1018.99 1019.31 1019.22 1019.07 1019.82 1020.00 1019.96 1019.91 1019.85 1019.72 1019.53 1019.60 1019.57 1018.38 1018.50 1019.02 1018.13 1018.44 1018.34 1019.21 1020.31 1020.93 1020.89 1020.83 1020.88 1020.90 1020.91 1020.85 1020.76
1014.13 1014.79 1015.33 1016.10 1016.93 1017.01 1017.42 1017.47 1017.31 1017.66 1018.22 1018.63 1018.69 1018.82 1018.76 1018.97 1018.96 1018.97 1019.40 1019.34 1019.30 1019.43 1019.38 1018.85 1018.85 1018.50 1018.23 1018.21 1018.02 1017.95 1018.00 1017.80 1018.15 1019.18 1020.65 1020.97 1020.96 1020.91 1020.89 1020.92 1020.89 1020.84 1020.74
1014.49 1015.03 1015.69 1016.59 1017.46 1016.98 1017.19 1017.56 1016.61 1017.02 1017.58 1017.89 1018.32 1018.96 1018.96 1018.57 1018.60 1018.55 1018.49 1018.97 1018.75 1018.87 1018.79 1018.33 1018.85 1018.74 1018.53 1018.42 1018.30 1017.87 1017.99 1018.07 1018.18 1019.19 1020.61 1020.97 1021.01 1020.99 1021.00 1020.95 1020.92 1020.81 1020.72
1014.56 1015.18 1016.01 1016.78 1017.59 1017.32 1017.82 1016.87 1017.15 1017.47 1017.10 1018.05 1018.35 1018.69 1018.68 1018.57 1018.95 1018.78 1018.86 1018.90 1018.56 1018.49 1018.48 1018.36 1018.79 1018.61 1018.65 1018.51 1018.71 1018.47 1018.64 1018.69 1018.47 1018.71 1019.97 1020.79 1020.95 1021.04 1021.03 1020.99 1020.89 1020.80 1020.80
1014.71 1015.45 1016.15 1016.79 1017.43 1017.91 1017.81 1017.69 1017.48 1017.53 1017.95 1017.79 1018.29 1018.87 1018.90 1018.62 1018.74 1019.21 1019.09 1018.76 1018.94 1019.42 1018.97 1018.84 1019.19 1018.74 1018.54 1018.67 1018.94 1019.01 1018.86 1018.94 1019.27 1018.79 1019.17 1020.28 1020.69 1020.85 1020.91 1020.93 1020.87 1020.84 1020.84
1015.01 1015.53 1016.17 1016.68 1017.16 1018.48 1018.58 1017.97 1017.47 1017.92 1017.61 1017.85 1018.87 1019.27 1019.21 1019.25 1019.38 1019.30 1019.27 1019.26 1019.02 1019.32 1019.32 1019.34 1019.21 1018.81 1018.48 1018.60 1018.95 1018.91 1018.96 1018.84 1019.23 1019.33 1018.86 1019.17 1020.10 1020.52 1020.68 1020.81 1020.85 1020.81 1020.72
1015.17 1015.61 1016.13 1016.23 1017.22 1018.05 1017.91 1017.67 1017.36 1017.39 1017.63 1018.01 1018.75 1019.42 1019.68 1019.93 1019.81 1019.47 1019.75 1019.32 1019.27 1018.99 1018.69 1018.65 1018.53 1018.52 1018.48 1018.63 1018.75 1018.45 1018.63 1018.54 1018.91 1019.01 1018.94 1018.61 1018.81 1019.24 1020.41 1020.60 1020.62 1020.57 1020.47
1015.58 1016.07 1016.40 1016.68 1017.11 1017.83 1018.07 1017.84 1017.81 1018.16 1017.89 1018.04 1018.49 1019.07 1019.92 1020.05 1019.97 1019.56 1019.38 1019.81 1019.83 1019.03 1018.67 1018.50 1018.64 1018.49 1018.68 1018.30 1018.32 1018.53 1018.60 1018.31 1017.97 1018.20 1018.86 1018.69 1018.93 1018.57 1019.01 1020.14 1020.20 1020.22 1020.17
1015.47 1016.65 1016.79 1017.00 1017.46 1017.80 1018.48 1018.50 1018.57 1018.41 1018.20 1018.05 1018.35 1019.22 1019.81 1019.81 1019.98 1019.75 1019.65 1019.97 1019.90 1019.01 1019.12 1019.13 1019.49 1019.07 1018.65 1018.40 1017.45 1018.25 1018.13 1018.07 1017.99 1018.03 1018.36 1017.91 1018.71 1018.33 1018.67 1019.19 1019.13 1019.39 1019.76
1015.13 1016.62 1016.74 1017.59 1017.87 1018.30 1018.55 1018.25 1018.49 1018.81 1018.78 1018.72 1018.47 1019.33 1019.85 1019.91 1020.09 1019.85 1019.97 1020.07 1019.99 1019.34 1019.77 1019.77 1019.71 1019.39 1018.77 1018.79 1018.15 1018.01 1018.14 1018.11 1017.93 1017.77 1017.67 1017.57 1018.37 1018.12 1018.79 1018.91 1018.49 1018.68 1019.18
1015.03 1015.93 1017.27 1017.96 1018.17 1018.65 1018.31 1018.51 1018.23 1018.66 1018.94 1019.22 1019.11 1019.38 1019.68 1019.97 1020.18 1020.05 1020.17 1019.88 1020.21 1020.06 1020.17 1020.11 1019.88 1019.08 1018.94 1019.01 1018.07 1017.70 1017.58 1017.56 1017.58 1017.71 1017.97 1017.84 1017.87 1017.73 1018.24 1018.71 1018.85 1019.09 1018.77
1014.86 1015.73 1016.59 1017.89 1018.34 1018.44 1018.26 1018.47 1018.28 1018.67 1019.09 1019.19 1019.61 1019.38 1019.67 1019.74 1019.97 1019.91 1020.21 1020.25 1020.08 1020.09 1019.98 1020.17 1019.88 1019.64 1018.98 1019.30 1019.15 1018.40 1017.82 1017.23 1017.46 1017.85 1018.17 1018.29 1018.33 1017.95 1017.84 1018.31 1018.48 1018.79 1018.81
1014.20 1015.23 1016.27 1017.20 1018.41 1018.71 1018.66 1018.65 1018.97 1018.79 1018.84 1019.15 1019.16 1019.32 1019.59 1019.83 1019.86 1020.07 1020.37 1020.51 1020.50 1020.57 1020.07 1020.09 1019.95 1019.81 1019.64 1018.83 1018.76 1018.93 1018.91 1018.56 1017.60 1017.66 1017.79 1018.26 1018.37 1017.99 1018.43 1017.61 1017.80 1018.36 1018.25
1013.57 1014.51 1015.80 1016.93 1017.97 1018.45 1018.70 1019.09 1018.81 1018.63 1018.66 1018.63 1019.05 1019.43 1019.92 1020.05 1019.96 1019.87 1020.15 1020.61 1020.60 1020.29 1020.17 1020.39 1020.40 1020.33 1019.61 1019.37 1018.59 1018.67 1018.91 1018.43 1018.29 1017.61 1016.97 1017.51 1017.56 1017.54 1017.61 1017.57 1017.73 1017.54 1017.69
1013.03 1013.93 1015.11 1016.67 1017.58 1018.13 1018.83 1018.87 1018.90 1018.52 1018.63 1018.76 1019.20 1019.31 1019.28 1019.76 1019.87 1020.01 1020.01 1020.60 1020.76 1020.57 1020.46 1020.57 1020.57 1020.67 1020.59 1020.08 1019.59 1019.30 1018.50 1019.02 1018.02 1017.80 1017.57 1017.81 1017.57 1017.42 1017.21 1016.64 1016.97 1017.29 1017.47
Wind_Speed
14 13 10 11 12 12 14 14 14 14 15 14 14 14 14 15 15 15 15 16 16 14 16 16 14 17 16 16 16 15 14 13 13 15 16 14 13 10 9 7 14 16 15
18 15 11 12 13 13 13 13 14 14 14 13 14 14 15 14 15 16 14 16 17 17 17 16 16 15 15 16 16 15 13 11 11 12 17 18 15 15 15 15 17 14 14
19 15 15 12 13 12 13 13 14 14 14 13 12 14 14 15 16 15 15 17 17 16 16 16 15 17 15 16 16 15 11 7 7 5 0 15 14 16 17 18 15 15 14
18 17 15 11 13 12 11 13 14 13 14 13 11 14 14 14 16 15 15 15 15 16 16 17 16 15 15 16 15 14 8 7 10 7 12 13 16 16 15 16 16 15 16
15 16 13 12 11 11 13 13 13 13 14 13 12 14 14 14 15 15 16 15 14 14 13 13 14 14 15 15 14 10 6 6 3 15 14 14 11 15 16 16 18 17 17
13 17 13 11 10 10 11 11 11 13 12 13 12 14 14 14 15 15 14 13 13 13 12 12 14 14 14 14 12 8 7 10 5 13 15 15 13 15 16 18 17 16 15
10 15 14 10 11 10 10 11 10 11 12 12 12 13 14 14 15 15 15 14 15 15 14 15 15 14 13 14 11 7 7 7 11 13 14 13 13 15 16 16 16 15 15
14 15 14 11 10 11 11 10 11 11 12 12 13 14 13 13 14 14 15 15 16 15 14 14 14 13 13 12 8 5 8 10 14 13 13 11 12 14 15 14 14 14 13
14 14 14 14 11 11 11 11 11 12 12 13 12 13 13 13 13 13 13 14 14 14 13 12 12 12 11 10 6 1 7 10 12 9 13 10 10 13 12 12 14 12 12
18 12 13 8 12 13 12 11 12 12 14 13 13 12 13 13 12 13 13 11 12 12 12 11 9 10 10 8 5 5 8 12 12 11 10 8 11 12 11 11 11 10 10
9 15 15 15 13 9 11 11 13 13 13 14 11 10 13 10 10 11 13 10 9 9 9 8 7 10 11 12 9 9 10 6 8 9 8 7 9 10 10 9 9 9 9
10 11 6 10 12 6 8 8 10 12 9 6 8 10 8 5 3 11 10 8 6 6 8 8 9 11 14 8 7 11 4 7 6 9 7 6 7 8 8 7 7 7 7
10 11 18 11 8 9 10 8 6 8 7 5 9 6 5 8 8 7 7 7 6 10 5 10 8 7 6 6 5 6 5 6 7 8 9 7 6 6 6 5 5 5 6
9 11 11 9 6 7 7 5 4 7 8 8 8 6 6 4 5 4 5 6 2 5 2 5 6 3 8 8 8 8 9 7 6 8 8 6 4 3 4 4 4 5 6
10 12 13 11 4 6 6 5 8 6 7 11 9 3 5 8 6 6 2 4 2 4 4 6 7 4 5 7 5 7 10 7 7 8 7 8 5 2 1 2 3 4 4
11 12 12 13 10 9 4 6 6 6 9 7 8 6 6 7 6 7 4 4 2 5 7 7 6 4 3 7 6 6 6 9 6 7 9 8 8 5 3 1 2 3 4
8 14 10 12 11 12 7 9 6 9 7 8 10 6 8 5 5 4 3 5 5 4 5 4 5 3 5 6 6 2 9 4 8 4 5 9 9 10 7 4 3 4 5
7 10 10 11 12 11 7 7 8 8 7 9 9 8 6 5 3 2 2 3 2 1 4 2 4 3 3 5 3 5 4 7 7 5 5 2 2 9 9 8 7 6 6
8 7 5 11 12 11 6 5 5 5 6 7 8 9 7 6 3 1 1 6 6 1 2 3 3 4 2 4 8 6 3 3 3 7 7 1 5 2 8 11 10 9 7
16 9 3 7 11 10 9 5 5 5 1 7 8 8 7 6 4 3 5 3 6 2 4 8 7 4 3 4 4 5 4 4 3 3 6 5 6 1 9 2 7 7 11
14 11 8 7 10 5 10 7 7 4 2 1 7 9 4 5 5 2 3 4 5 3 6 2 6 1 4 1 5 6 6 8 4 4 3 4 5 5 6 4 2 3 7
13 14 11 8 10 7 7 2 3 3 3 3 4 7 8 6 5 4 3 4 3 3 2 3 5 4 5 4 4 2 5 5 5 7 3 4 4 5 8 5 4 2 5
13 13 13 11 10 8 1 3 3 5 5 5 6 7 5 8 7 2 2 3 2 4 6 3 2 4 4 5 5 6 4 4 6 7 5 6 4 4 3 6 3 3 1
15 13 11 13 10 8 7 5 8 3 5 1 7 3 6 5 5 7 5 3 4 5 5 4 2 7 5 3 4 5 6 5 4 5 6 6 6 6 2 4 4 7 3
15 14 14 11 12 8 9 7 7 7 6 6 5 8 5 3 5 7 7 5 5 6 4 3 1 5 6 7 3 4 2 4 3 5 4 7 5 3 5 0 5 4 5
15 14 15 13 11 11 8 7 5 4 0 4 5 5 7 9 7 7 7 6 5 5 4 4 1 2 6 7 7 7 4 3 1 4 2 2 2 4 1 5 3 2 4
Wind_Direction
119 112 112 110 98 98 96 94 92 91 91 89 89 88 88 87 89 92 89 87 89 93 85 81 78 74 76 74 74 74 79 86 94 94 87 81 72 77 108 116 127 96 90
121 119 122 104 100 94 100 96 92 87 88 90 97 92 91 95 90 93 97 89 91 90 89 90 83 81 79 85 77 76 77 87 98 102 111 89 72 76 76 78 77 94 91
121 124 119 113 103 97 96 94 95 91 91 84 89 100 98 98 96 98 99 94 94 97 92 86 85 84 76 75 79 70 65 65 91 39 167 81 73 68 78 78 87 95 91
138 129 118 108 107 105 101 92 87 86 85 87 93 100 102 101 102 100 98 94 92 91 89 83 78 78 76 77 73 66 50 16 17 123 43 69 75 67 77 85 89 90 92
78 96 108 111 106 98 94 91 89 85 87 84 94 105 104 103 99 98 97 95 90 85 84 83 79 76 75 76 73 63 35 359 69 84 77 70 73 67 68 82 92 80 72
129 104 113 109 105 100 97 94 91 87 84 85 94 111 103 105 102 96 95 88 84 87 95 87 85 80 78 76 69 50 18 337 20 72 92 72 68 73 74 72 73 74 78
130 124 116 107 108 106 101 101 100 90 89 87 85 95 103 112 102 100 91 88 95 92 90 88 83 82 81 75 64 30 348 10 72 73 74 77 68 61 66 71 68 69 74
116 116 124 122 114 107 99 100 104 100 95 92 91 98 104 103 104 105 98 98 93 95 92 86 84 85 83 80 73 19 338 316 103 89 80 75 67 68 66 68 69 70 66
121 125 133 134 119 110 103 106 111 108 104 99 100 102 103 107 105 103 96 96 92 88 84 90 91 92 90 91 90 348 300 323 68 81 90 87 83 74 73 59 71 72 66
146 105 121 118 144 145 126 110 109 112 108 106 105 112 115 112 117 122 116 91 87 84 83 86 106 106 111 120 154 221 270 279 110 94 75 71 76 77 74 68 67 66 61
141 137 131 165 122 96 128 117 119 115 118 121 120 132 177 127 137 135 79 95 89 91 88 95 135 151 160 161 189 212 245 54 76 80 84 76 80 81 79 74 68 62 56
131 120 191 119 107 125 121 128 137 149 129 110 121 124 112 68 38 100 106 113 120 141 153 180 194 187 193 171 158 204 126 107 93 91 87 86 87 84 80 72 63 56 49
161 166 100 94 98 156 111 164 176 137 144 122 154 130 123 142 149 129 142 155 160 186 227 198 189 202 35 98 80 93 99 109 107 84 98 96 81 76 73 64 55 44 36
142 86 102 105 120 137 132 196 153 118 130 156 107 124 139 160 114 159 84 98 121 66 132 58 88 1 110 80 31 64 61 73 83 98 111 122 101 76 66 56 41 30 19
145 136 123 123 105 108 318 106 86 141 143 102 166 110 151 103 125 114 146 67 115 132 126 90 75 68 97 87 82 50 88 43 70 104 97 145 150 137 75 28 24 13 358
147 128 128 139 154 111 88 108 165 83 116 151 110 101 123 138 119 139 164 149 54 52 35 58 13 64 51 129 96 87 60 96 57 27 125 138 164 171 193 234 318 326 327
156 135 151 138 139 122 159 166 102 158 135 135 101 150 87 120 48 105 109 318 96 122 169 132 182 213 135 116 106 108 121 97 105 81 63 143 148 181 185 201 242 271 287
140 147 169 143 144 159 151 157 163 128 140 119 142 138 110 99 157 223 156 218 86 309 94 78 142 123 113 90 77 92 112 121 128 162 98 95 77 139 175 194 210 232 263
137 140 171 140 148 142 123 89 106 109 141 148 143 134 127 146 184 186 277 86 260 82 43 122 82 82 181 155 145 141 147 137 180 88 125 29 138 92 128 185 200 214 233
134 132 268 152 129 138 136 175 132 179 169 149 151 109 162 129 150 192 94 154 269 206 102 42 354 4 17 333 74 69 82 107 121 117 120 180 91 21 96 114 191 186 208
149 142 170 109 143 160 165 177 147 154 131 309 127 127 125 147 144 247 98 196 275 45 48 331 202 245 87 217 298 155 131 178 169 128 125 95 161 113 114 126 354 35 186
156 153 145 161 162 175 210 23 75 136 113 197 98 153 181 170 156 159 235 240 44 101 77 357 328 311 108 10 348 279 158 169 87 86 42 82 18 152 133 105 123 75 341
154 164 164 164 186 189 235 168 168 118 143 166 143 165 175 172 179 166 216 355 203 271 149 215 350 319 82 113 329 335 335 117 143 137 189 74 273 78 76 155 96 98 305
158 161 170 161 176 197 195 178 133 187 185 220 180 150 148 190 207 178 158 196 251 343 64 169 116 329 327 119 158 61 18 13 346 139 138 137 195 153 14 270 119 140 240
161 165 157 174 168 211 146 167 172 211 184 183 75 135 112 120 245 199 165 195 219 257 99 359 57 328 314 321 56 126 310 168 349 14 190 142 179 130 142 323 13 337 127
166 166 150 167 168 171 177 184 210 154 21 95 123 147 183 173 191 210 176 194 230 254 154 212 185 277 345 352 350 310 350 33 61 333 79 222 287 139 330 154 139 319 34